User: anonymous   Login
Location: Caltech
(34.1382°N, 118.1253°W)
Time: 16:00:33
(UTC-07:00)
Language:

Cosmos 1697 Rocket - Orbit

View from above orbital plane
View from above orbital plane
View from above satellite
View from above satellite

Ground track
Ground track

The orbit data is extracted from the following two-line orbital elements,

1 16182U 85097B   16209.49804810 -.00000256  00000-0 -10510-3 0  9994
2 16182  71.0045 331.1870 0008996 221.8202 206.3815 14.16201087590255
Epoch (UTC): 27 July 2016 11:57:11
Eccentricity: 0.0008996
inclination: 71.0045°
perigee height: 832 km
apogee height: 845 km
right ascension of ascending node: 331.1870°
argument of perigee: 221.8202°
revolutions per day: 14.16201087
mean anomaly at epoch: 206.3815°
orbit number at epoch: 59025

The dashed part of the orbit path shows where the satellite is in the earth's shadow,  

DLR